Starlink 5415

operational
NORAD ID: 54796 Int'l Des: 2022-175 Owner: SPXS Country: US Constellation: starlink
LEOCIRCULAR

Über Starlink 5415

Beschreibung wird geladen...

Live-Position

3D-Globus wird geladen...

Nächste Überflüge

Höhenverlauf

Altitude vs Time

uPlot chart will show altitude changes over time

Zweizeiliger Elementsatz

1 54796U 22175AQ 25258.28978430 .00000149 00000-0 27459-4 0 9996
2 54796 53.2164 96.2715 0001289 90.6067 269.5072 15.08841656153657
Epoch: 15. Sept. 2025 • Age: 19 hours

Aktueller Status

Höhe 545.0 km
Geschwindigkeit 7.60 km/s
Subsatellitenpunkt 51.02°N, 128.61°E
Startdatum 17. Dez. 2022
Alter 2.7 years
Typ internet

Technische Details

Klassifizierung Payload
Masse 305.00 kg
Trockenmasse 290.00 kg
Gesamtmasse 305.00 kg
Länge 0.20 m
Durchmesser 2.80 m
Spannweite 9.00 m
Form Box + pan
Hersteller SPXS
Bus-Typ Starlink
Phasenstatus In Orbit
Besitzer/Staat SPXS/US

Große Konstellationen

Loading constellations...